Theta_e
302 302 301 301 301 301 300 299 299 300 300 300 300 302 301 302 302 301 302 303 304 305 307 304 302 303 307 310 315 319 313 313 315 316 316 308 307 309 306 306 308 308 308 307 306
301 302 301 301 301 301 300 299 299 300 300 300 301 302 300 301 302 302 301 303 304 307 307 305 304 306 309 311 315 314 312 313 311 310 311 306 304 304 304 302 303 304 306 305 304
301 302 301 301 301 301 300 299 299 300 300 300 301 304 303 301 305 302 301 302 304 306 307 308 308 309 310 312 312 311 310 309 306 307 306 304 303 303 302 301 302 304 303 304 304
303 302 301 301 301 301 300 299 299 300 300 300 302 301 304 303 305 301 301 302 304 305 308 309 309 308 307 309 308 309 305 305 306 306 305 303 303 302 302 303 303 303 304 304 304
304 304 302 301 301 301 300 299 300 300 300 301 303 303 304 302 301 302 301 302 303 305 307 308 308 307 306 304 305 305 304 305 304 304 304 304 303 302 303 304 304 304 304 304 304
304 305 304 302 302 301 300 300 300 301 301 301 301 303 304 301 301 301 302 301 302 305 306 307 307 306 305 304 303 304 304 303 303 304 303 302 301 302 303 304 304 303 303 303 303
307 304 305 302 302 302 301 300 300 301 301 301 301 301 302 302 301 301 302 301 301 303 303 305 306 306 305 303 303 304 304 302 300 302 302 302 300 299 303 302 303 303 303 303 303
314 307 305 305 303 303 301 300 300 300 301 301 301 301 304 301 302 301 301 301 301 302 304 305 305 304 304 304 302 299 298 298 299 300 302 302 299 300 302 301 301 302 304 304 306
318 316 307 306 304 303 302 301 301 300 300 300 301 302 303 301 302 301 301 301 301 302 303 305 304 301 301 302 300 296 298 300 298 300 299 301 299 299 301 300 302 304 304 304 306
316 318 316 307 305 304 301 301 301 301 301 300 301 302 302 302 301 301 301 302 303 304 304 305 303 297 296 297 301 298 299 299 298 299 299 297 297 298 299 301 302 303 304 305 305
316 317 318 313 306 303 301 301 303 304 301 304 303 303 303 301 301 302 302 304 304 304 301 301 298 298 300 300 300 300 300 299 298 298 297 297 297 298 301 301 301 303 304 304 306
317 317 317 318 307 302 301 300 300 301 300 302 300 301 301 301 303 301 302 303 303 301 302 300 298 299 300 301 301 301 299 297 297 298 299 299 301 300 299 302 303 303 304 305 305
317 316 316 316 313 302 300 299 300 300 300 303 301 302 301 301 301 300 302 303 300 300 302 301 300 299 300 300 299 297 297 299 298 297 299 299 300 302 303 303 304 304 305 304 303
315 317 316 315 311 303 300 299 301 301 306 304 300 302 301 302 303 300 301 302 300 300 300 300 299 299 299 300 297 297 298 298 299 300 299 300 298 302 303 303 302 303 304 304 302
314 314 317 315 316 312 300 299 301 306 310 303 301 301 301 302 301 302 301 301 299 299 300 300 298 298 300 300 297 297 298 299 299 300 300 302 297 300 302 303 301 300 303 302 300
311 315 316 317 316 313 301 300 306 310 314 302 301 302 302 301 300 302 302 300 299 298 297 298 297 299 299 298 297 299 299 297 299 300 293 300 302 299 301 302 302 301 302 299 300
310 313 315 316 315 313 312 304 311 311 304 303 300 301 301 301 300 301 299 298 300 300 300 298 298 298 297 297 298 299 295 291 293 291 296 299 302 302 300 299 302 300 300 298 299
308 311 314 314 314 313 312 306 315 310 306 300 300 301 301 300 300 300 300 300 298 297 296 298 299 298 297 296 297 302 294 292 290 292 292 297 299 300 298 300 301 301 299 297 298
306 308 311 312 313 312 309 311 314 307 303 300 300 300 299 299 301 300 300 300 299 297 299 296 298 296 296 297 298 299 294 294 286 285 289 295 296 297 298 299 300 299 296 296 299
305 307 309 311 310 306 305 312 308 305 301 301 304 301 299 298 299 299 300 300 300 297 297 297 297 296 296 299 298 299 297 296 288 289 289 292 294 295 298 301 298 296 295 297 298
302 305 306 309 302 302 307 309 305 301 302 305 304 306 303 300 299 299 301 301 299 297 297 295 298 296 295 296 299 297 294 292 292 292 289 288 295 293 297 298 296 294 295 296 298
302 303 305 306 301 300 305 305 303 300 300 300 302 304 303 302 297 299 300 300 299 297 297 297 297 297 297 294 296 297 296 293 291 292 291 289 295 296 295 296 296 295 295 296 298
300 304 302 300 305 302 301 301 300 300 300 304 305 302 301 303 302 299 299 298 298 297 297 297 294 297 302 297 295 296 297 294 285 286 293 290 295 295 295 296 295 294 295 296 298
298 300 298 298 299 304 303 301 300 300 301 300 300 300 300 300 299 299 298 298 298 297 298 297 294 298 309 305 297 297 296 295 291 289 288 293 294 298 297 293 293 293 295 297 298
296 301 299 299 298 301 303 302 301 301 301 302 301 302 301 301 299 298 298 298 298 299 296 295 292 291 292 293 294 296 297 297 294 292 295 297 291 294 291 285 292 295 296 297 297
295 299 299 297 301 301 303 305 304 300 300 302 303 301 301 304 304 302 298 298 298 297 296 294 293 295 293 294 295 296 296 296 297 296 292 295 296 297 297 296 295 296 296 297 296
291 292 295 299 300 302 304 305 304 301 300 301 302 301 300 301 299 298 296 297 296 296 295 295 292 289 295 292 292 298 297 296 294 291 294 293 295 289 288 288 293 295 297 298 296
Wind_Speed
14 14 13 12 11 8 8 9 9 7 6 7 9 9 5 2 7 5 3 4 5 4 5 7 10 13 12 6 4 3 3 2 3 5 2 0 3 2 4 9 7 5 5 2 5
14 15 14 14 12 9 9 10 10 8 6 7 7 5 3 4 3 8 7 5 4 4 6 10 14 14 6 5 4 3 3 7 2 1 2 1 1 4 4 5 4 8 6 6 10
14 14 15 14 13 10 9 11 10 8 6 5 6 3 2 4 5 4 6 3 3 5 10 12 11 8 4 5 3 4 4 3 2 1 2 2 4 2 1 5 6 5 12 12 10
14 14 15 15 14 12 11 11 10 7 6 4 5 3 3 1 2 5 5 4 5 6 11 9 7 5 4 4 3 2 1 0 1 1 3 4 4 3 8 8 12 13 10 6 5
15 15 15 15 14 13 12 12 9 8 5 4 3 4 3 2 2 4 4 5 6 7 9 7 6 4 5 4 3 2 2 3 2 5 6 7 8 6 16 10 2 4 4 8 12
14 15 15 16 15 12 12 12 10 7 5 5 5 3 2 2 4 4 3 5 5 6 8 7 5 5 5 2 3 1 2 6 3 3 4 3 6 1 5 4 6 9 16 17 16
16 15 16 15 16 14 12 12 11 7 5 5 4 4 2 2 3 6 2 4 5 7 9 8 8 3 5 3 2 1 1 1 7 6 2 10 1 7 5 7 13 21 18 15 15
18 18 16 17 14 16 14 12 11 8 5 4 4 4 3 3 3 7 1 2 6 7 8 9 9 7 3 4 4 4 5 3 2 6 4 7 9 6 5 8 29 25 15 9 9
19 20 20 18 16 15 14 13 10 7 7 5 4 3 3 3 2 6 1 3 5 6 7 6 5 4 3 4 4 7 1 2 9 4 4 2 8 5 14 28 29 24 17 7 3
19 21 22 21 17 15 12 12 5 3 2 5 4 2 4 2 3 4 1 3 3 6 5 2 4 3 4 4 3 2 2 3 5 3 5 7 18 15 25 20 23 20 8 4 1
16 16 20 21 19 16 12 5 2 3 3 3 2 3 3 4 2 1 1 4 4 2 2 3 5 2 3 2 3 4 1 4 5 3 6 4 12 18 20 16 15 7 4 4 3
17 17 20 22 21 12 10 4 6 4 6 6 5 4 4 2 1 2 1 3 2 2 1 4 2 3 4 3 2 2 2 5 5 2 3 7 18 13 7 5 2 7 7 6 2
19 19 17 20 20 11 9 9 5 6 4 3 5 4 3 2 2 1 3 4 3 2 1 4 1 6 3 2 1 3 4 1 3 6 3 7 7 3 2 2 5 8 6 3 8
18 20 16 16 13 13 6 8 6 6 3 3 4 3 4 3 1 1 3 3 3 4 3 4 3 4 3 1 3 3 4 1 4 3 3 5 4 5 3 4 4 6 5 3 14
18 19 19 18 11 12 11 7 6 2 2 2 3 3 4 4 4 1 2 2 5 5 4 2 5 3 3 3 5 2 2 1 1 1 3 1 2 7 2 5 8 8 6 8 19
19 16 18 17 13 7 10 10 4 3 7 2 3 3 3 1 1 3 2 4 4 4 4 2 1 1 2 2 2 2 2 4 3 2 3 3 3 6 5 6 3 3 6 13 21
18 17 19 16 11 6 8 6 4 4 2 3 2 3 1 3 2 3 2 2 4 4 4 1 2 1 2 2 1 4 4 4 5 4 5 1 1 10 7 6 4 7 7 21 25
21 16 20 20 17 9 5 3 6 3 5 2 1 2 3 2 1 2 3 2 3 3 3 5 4 5 2 1 3 3 4 5 5 2 5 4 6 6 5 4 8 5 12 23 27
13 15 20 22 19 12 10 2 4 4 1 5 1 4 3 1 1 2 6 4 6 8 7 5 1 2 3 2 2 2 3 3 6 1 3 3 7 11 6 7 7 4 17 26 31
14 14 22 21 17 16 3 6 5 4 7 1 2 2 2 1 3 4 6 3 5 3 2 4 3 1 3 3 5 4 4 3 3 1 5 5 6 6 5 4 6 5 18 28 28
12 7 11 18 17 8 4 6 5 5 5 5 4 2 2 2 4 3 4 1 2 4 3 3 2 0 2 6 8 2 1 4 3 3 4 3 7 7 7 5 7 5 19 22 24
13 4 11 22 5 4 3 6 6 5 4 3 2 3 5 2 3 4 5 2 7 7 6 2 3 4 3 2 2 3 5 6 4 5 2 3 8 2 7 5 6 8 22 21 24
8 11 17 30 6 6 1 3 6 6 6 8 9 3 3 5 3 3 1 4 5 4 6 5 2 2 4 2 3 4 5 5 5 3 6 6 7 1 2 4 8 12 27 21 24
7 4 8 23 9 5 7 4 6 7 5 6 5 6 4 4 3 3 3 1 1 2 3 5 2 5 5 3 4 4 5 7 6 4 4 10 11 18 13 9 13 25 25 21 22
9 5 9 6 9 5 11 10 7 6 4 8 1 5 8 5 3 6 3 2 2 5 3 3 4 2 4 6 3 5 5 13 13 10 8 8 10 17 10 7 16 29 23 20 21
7 5 4 3 10 15 13 15 13 5 9 5 5 14 12 8 8 8 7 4 5 2 5 1 2 2 4 2 4 6 13 16 18 10 14 19 24 26 32 23 16 15 15 17 17
25 34 16 7 7 13 21 22 15 10 11 7 18 6 12 15 7 4 4 2 6 7 6 5 4 3 5 3 6 8 9 14 7 5 11 9 16 1 5 4 11 14 14 14 14
Wind_Direction
352 353 358 352 341 344 348 347 341 331 320 326 335 336 216 209 44 48 50 42 45 119 121 143 155 164 165 157 150 140 67 212 241 174 180 188 15 246 302 274 294 272 261 217 313
354 352 353 352 340 341 344 344 338 331 313 318 338 352 222 242 315 30 27 27 34 122 128 142 136 142 125 146 158 106 128 220 203 178 231 259 216 294 315 320 270 269 216 303 314
355 354 349 350 338 341 341 340 338 332 321 318 337 4 349 258 295 357 14 20 27 152 145 135 134 133 115 150 180 162 195 218 239 238 315 316 298 285 334 308 245 255 286 293 299
354 351 347 349 340 340 337 338 336 334 323 310 337 284 344 334 229 346 14 33 50 150 161 148 145 139 120 155 172 152 284 340 231 278 326 302 289 256 227 250 295 279 291 314 323
350 350 348 344 344 341 334 333 334 325 306 288 327 328 301 291 338 348 28 46 64 144 164 164 154 136 143 145 139 156 12 320 294 299 285 281 266 266 272 293 310 353 300 299 303
351 345 350 345 342 341 331 330 330 321 298 276 281 323 299 251 352 13 31 56 89 145 161 164 151 125 108 94 125 141 296 293 348 344 288 298 280 159 243 206 245 312 307 289 291
348 345 347 345 340 339 331 324 323 309 299 279 255 272 307 191 10 16 34 69 98 102 118 123 128 128 130 114 101 68 63 70 21 336 356 325 157 213 178 254 282 301 307 287 275
347 343 343 338 337 341 332 321 314 282 289 286 250 266 264 246 310 6 29 92 112 124 115 102 105 103 72 112 35 46 52 7 334 356 355 52 271 248 265 305 310 310 304 290 289
347 344 341 333 329 341 332 323 312 280 269 243 245 241 258 257 289 354 62 131 130 122 125 106 104 78 69 78 33 12 215 303 320 47 326 80 275 239 301 319 307 307 307 296 310
338 341 339 327 332 333 340 330 319 287 270 219 242 272 247 252 282 354 126 136 128 133 113 100 69 73 44 67 217 223 320 284 255 310 349 289 267 289 299 308 293 295 283 298 64
324 332 333 329 330 336 346 340 323 294 250 231 229 254 262 290 209 319 206 140 113 136 116 32 76 170 144 67 84 101 110 258 261 297 319 231 279 285 298 303 284 266 304 114 129
305 320 326 332 331 337 351 17 29 324 306 246 239 234 246 262 217 330 174 166 126 148 106 33 145 155 119 85 94 127 238 254 270 265 350 317 294 288 281 265 276 148 114 106 49
293 305 318 327 330 327 7 27 11 353 268 264 228 229 221 229 204 306 169 147 107 94 37 131 90 124 112 87 53 219 203 229 256 326 242 304 288 306 332 83 117 132 133 93 0
289 283 303 324 316 335 350 356 2 351 23 223 220 216 193 168 253 31 125 142 50 151 124 115 149 134 133 183 144 272 158 123 282 17 274 40 276 294 241 283 208 189 185 327 336
288 282 286 291 304 319 322 331 342 6 347 136 186 176 167 178 138 90 87 105 146 143 116 194 150 163 151 199 171 224 357 263 173 130 26 241 64 270 293 255 230 222 227 319 334
278 281 269 272 281 287 317 316 12 56 247 201 150 168 144 152 141 133 110 90 98 98 41 107 101 135 153 141 194 0 84 51 53 64 15 244 120 270 214 212 162 193 227 322 338
260 262 259 264 242 249 267 348 81 189 347 272 199 155 211 159 175 161 147 139 154 110 197 181 173 163 140 150 110 67 57 343 350 8 221 4 190 248 259 233 204 187 299 338 339
243 269 254 254 249 204 178 86 239 201 222 101 35 91 177 139 206 152 132 219 225 125 114 160 295 168 154 124 151 71 133 145 242 266 280 316 233 250 232 271 195 186 329 336 339
300 273 251 239 232 197 156 169 238 212 178 152 212 88 315 348 178 165 207 216 192 178 167 142 177 75 56 99 95 208 54 141 102 46 32 263 284 287 262 205 185 266 331 338 338
281 277 247 241 217 172 97 223 208 169 133 136 191 115 219 258 186 185 186 195 183 180 123 201 100 300 149 115 43 105 132 69 5 359 302 284 280 244 268 224 203 311 336 334 332
297 247 235 228 175 151 201 225 206 192 153 139 176 118 212 284 211 231 218 222 150 135 99 144 100 103 129 206 169 99 61 50 116 141 177 294 265 222 236 219 195 248 335 331 327
258 229 209 200 159 196 208 185 170 159 152 99 104 165 177 190 234 243 230 227 160 148 155 176 137 174 196 63 145 148 159 148 131 235 205 147 272 279 253 209 184 300 330 330 328
271 217 194 183 207 198 236 224 173 149 183 168 185 192 97 170 252 212 266 341 157 138 155 193 273 53 344 37 2 211 180 132 120 97 200 144 262 354 348 216 255 299 321 325 329
273 209 184 198 242 228 163 226 190 200 157 158 128 114 124 197 224 288 220 46 158 126 123 132 123 186 199 165 121 193 189 171 139 138 187 229 274 278 276 270 292 300 319 321 324
239 240 195 192 214 191 172 165 175 170 209 158 119 199 159 169 185 228 164 147 14 165 88 127 205 162 263 234 208 222 185 187 203 193 194 269 225 263 271 261 287 304 309 310 319
261 276 255 192 188 192 191 197 192 174 163 198 206 192 178 174 187 200 144 195 192 120 159 105 240 113 291 337 201 266 233 214 219 224 252 259 279 275 274 279 277 274 290 294 312
251 262 270 259 180 188 214 211 208 154 215 201 201 136 191 212 149 60 95 119 167 154 168 152 136 96 268 341 300 285 240 189 189 211 208 205 234 259 271 239 258 275 281 284 302